When you browse on this site, cookies collect data to enhance your experience and personalize the content and advertising you see.
Visit our Privacy Policy to learn more. By continuing to use the site, you agree to this use of cookies and data.
  • In Austria
  • List of Countries
  • For 7 days
  • Water Temperature
  • Satellite Maps
  • Weather Map
  • News
  • Weather Widgets
  • user-avatar
    Login

    Hourly Weather Wlora

    Today, 26 May, Sunday

    Time Temperature Precipitation Wind Pressure Humidity
    00:00 +19°C° 0 mm 4 mps 762 mmHg 92%
    01:00 +19°C° 0 mm 4 mps 762 mmHg 93%
    02:00 +19°C° 0 mm 4 mps 761 mmHg 91%
    03:00 +19°C° 0 mm 4 mps 761 mmHg 89%
    04:00 +19°C° 0 mm 3 mps 761 mmHg 87%
    05:00 +20°C° 0 mm 3 mps 761 mmHg 82%
    06:00 +21°C° 0 mm 2 mps 761 mmHg 78%
    07:00 +23°C° 0 mm 1 mps 761 mmHg 75%
    08:00 +24°C° 0 mm 1 mps 761 mmHg 69%
    09:00 +25°C° 0 mm 1 mps 761 mmHg 63%
    10:00 +26°C° 0 mm 1 mps 761 mmHg 57%
    11:00 +26°C° 0 mm 1 mps 761 mmHg 59%
    12:00 +26°C° 0 mm 1 mps 761 mmHg 61%
    13:00 +26°C° 0 mm 1 mps 761 mmHg 64%
    14:00 +26°C° 0 mm 2 mps 760 mmHg 63%
    15:00 +26°C° 0 mm 2 mps 760 mmHg 63%
    16:00 +26°C° 0 mm 2 mps 760 mmHg 62%
    17:00 +25°C° 0 mm 2 mps 759 mmHg 65%
    18:00 +24°C° 0 mm 3 mps 759 mmHg 69%
    19:00 +22°C° 0 mm 3 mps 759 mmHg 72%
    20:00 +22°C° 0 mm 3 mps 759 mmHg 71%
    21:00 +22°C° 0 mm 3 mps 760 mmHg 69%
    22:00 +21°C° 0 mm 4 mps 760 mmHg 67%
    23:00 +21°C° 0 mm 4 mps 760 mmHg 67%

    Tomorrow, 27 May, Monday

    Time Temperature Precipitation Wind Pressure Humidity
    00:00 +21°C° 0 mm 4 mps 759 mmHg 66%
    01:00 +21°C° 0 mm 5 mps 759 mmHg 65%
    02:00 +21°C° 0.5 mm 5 mps 759 mmHg 72%
    03:00 +20°C° 0.5 mm 6 mps 759 mmHg 78%
    04:00 +20°C° 0.5 mm 6 mps 759 mmHg 85%
    05:00 +20°C° 1.2 mm 6 mps 759 mmHg 85%
    06:00 +20°C° 1.2 mm 5 mps 758 mmHg 86%
    07:00 +20°C° 1.2 mm 5 mps 758 mmHg 87%
    08:00 +21°C° 0.7 mm 4 mps 758 mmHg 88%
    09:00 +21°C° 0.7 mm 3 mps 758 mmHg 90%
    10:00 +21°C° 0.7 mm 2 mps 758 mmHg 91%
    11:00 +23°C° 0 mm 2 mps 758 mmHg 86%
    12:00 +24°C° 0 mm 2 mps 757 mmHg 81%
    13:00 +25°C° 0 mm 2 mps 757 mmHg 76%
    14:00 +25°C° 0 mm 3 mps 757 mmHg 80%
    15:00 +23°C° 0 mm 4 mps 756 mmHg 83%
    16:00 +22°C° 0 mm 4 mps 756 mmHg 86%
    17:00 +22°C° 0 mm 6 mps 756 mmHg 87%
    18:00 +21°C° 0 mm 7 mps 756 mmHg 87%
    19:00 +21°C° 0 mm 8 mps 756 mmHg 88%
    20:00 +19°C° 0 mm 9 mps 756 mmHg 89%
    21:00 +19°C° 0 mm 10 mps 756 mmHg 91%
    22:00 +18°C° 0 mm 10 mps 757 mmHg 92%
    23:00 +18°C° 0.2 mm 10 mps 757 mmHg 94%

    Day after tomorrow, 28 May, Tuesday

    Time Temperature Precipitation Wind Pressure Humidity
    00:00 +18°C° 0.2 mm 9 mps 757 mmHg 96%
    01:00 +19°C° 0.2 mm 9 mps 757 mmHg 98%
    02:00 +18°C° 0.1 mm 9 mps 757 mmHg 98%
    03:00 +18°C° 0.1 mm 9 mps 756 mmHg 98%
    04:00 +18°C° 0.1 mm 10 mps 756 mmHg 98%
    05:00 +18°C° 0 mm 10 mps 756 mmHg 97%
    06:00 +18°C° 0 mm 10 mps 756 mmHg 96%
    07:00 +18°C° 0 mm 10 mps 756 mmHg 95%
    08:00 +19°C° 0.2 mm 11 mps 757 mmHg 93%
    09:00 +19°C° 0.2 mm 11 mps 757 mmHg 90%
    10:00 +21°C° 0.2 mm 11 mps 757 mmHg 87%
    11:00 +19°C° 0.4 mm 11 mps 757 mmHg 90%
    12:00 +19°C° 0.4 mm 11 mps 757 mmHg 93%
    13:00 +18°C° 0.4 mm 10 mps 757 mmHg 96%
    14:00 +18°C° 0 mm 10 mps 757 mmHg 96%
    15:00 +19°C° 0 mm 10 mps 757 mmHg 95%
    16:00 +19°C° 0 mm 9 mps 757 mmHg 94%
    17:00 +19°C° 0 mm 9 mps 757 mmHg 95%
    18:00 +18°C° 0 mm 9 mps 758 mmHg 96%
    19:00 +18°C° 0 mm 9 mps 758 mmHg 97%
    20:00 +18°C° 0 mm 9 mps 758 mmHg 97%
    21:00 +18°C° 0 mm 9 mps 758 mmHg 97%
    22:00 +18°C° 0 mm 9 mps 759 mmHg 98%
    23:00 +17°C° 0 mm 9 mps 759 mmHg 97%

    29 May, Wednesday

    Time Temperature Precipitation Wind Pressure Humidity
    00:00 +17°C° 0 mm 9 mps 759 mmHg 97%
    01:00 +17°C° 0 mm 9 mps 759 mmHg 97%
    02:00 +17°C° 0 mm 9 mps 759 mmHg 97%
    03:00 +17°C° 0 mm 9 mps 759 mmHg 97%
    04:00 +17°C° 0 mm 9 mps 759 mmHg 97%
    05:00 +18°C° 0 mm 9 mps 759 mmHg 97%
    06:00 +18°C° 0 mm 9 mps 759 mmHg 96%
    07:00 +19°C° 0 mm 9 mps 760 mmHg 95%
    08:00 +21°C° 0 mm 9 mps 760 mmHg 92%
    09:00 +21°C° 0 mm 9 mps 760 mmHg 89%
    10:00 +22°C° 0 mm 9 mps 760 mmHg 86%
    11:00 +22°C° 0 mm 8 mps 760 mmHg 85%
    12:00 +23°C° 0 mm 8 mps 760 mmHg 84%
    13:00 +23°C° 0 mm 7 mps 760 mmHg 83%
    14:00 +23°C° 0 mm 7 mps 760 mmHg 82%
    15:00 +23°C° 0 mm 7 mps 760 mmHg 81%
    16:00 +23°C° 0 mm 7 mps 760 mmHg 80%
    17:00 +22°C° 0 mm 7 mps 760 mmHg 85%
    18:00 +21°C° 0 mm 7 mps 760 mmHg 90%
    19:00 +20°C° 0 mm 7 mps 760 mmHg 95%
    20:00 +18°C° 0 mm 7 mps 761 mmHg 95%
    21:00 +18°C° 0 mm 7 mps 761 mmHg 96%
    22:00 +18°C° 0 mm 7 mps 761 mmHg 96%
    23:00 +17°C° 0.2 mm 7 mps 761 mmHg 96%

    30 May, Thursday

    Time Temperature Precipitation Wind Pressure Humidity
    00:00 +17°C° 0.2 mm 7 mps 761 mmHg 96%
    01:00 +17°C° 0.2 mm 7 mps 761 mmHg 96%
    02:00 +17°C° 0.4 mm 7 mps 761 mmHg 96%
    03:00 +17°C° 0.4 mm 6 mps 761 mmHg 97%
    04:00 +16°C° 0.4 mm 6 mps 761 mmHg 97%
    05:00 +17°C° 0.4 mm 5 mps 761 mmHg 94%
    06:00 +19°C° 0.4 mm 5 mps 761 mmHg 91%
    07:00 +20°C° 0.4 mm 4 mps 762 mmHg 88%
    08:00 +21°C° 0.2 mm 4 mps 762 mmHg 84%
    09:00 +21°C° 0.2 mm 4 mps 762 mmHg 80%
    10:00 +22°C° 0.2 mm 3 mps 762 mmHg 77%
    11:00 +22°C° 0.1 mm 3 mps 762 mmHg 75%
    12:00 +24°C° 0.1 mm 3 mps 762 mmHg 74%
    13:00 +24°C° 0.1 mm 3 mps 762 mmHg 72%
    14:00 +24°C° 0 mm 2 mps 761 mmHg 73%
    15:00 +23°C° 0 mm 2 mps 761 mmHg 74%
    16:00 +23°C° 0 mm 2 mps 761 mmHg 76%
    17:00 +21°C° 0 mm 2 mps 761 mmHg 81%
    18:00 +20°C° 0 mm 2 mps 762 mmHg 86%
    19:00 +18°C° 0 mm 2 mps 762 mmHg 91%
    20:00 +18°C° 0 mm 3 mps 762 mmHg 91%
    21:00 +18°C° 0 mm 3 mps 762 mmHg 91%
    22:00 +17°C° 0 mm 3 mps 762 mmHg 91%
    23:00 +17°C° 0.1 mm 3 mps 762 mmHg 91%

    31 May, Friday

    Time Temperature Precipitation Wind Pressure Humidity
    00:00 +17°C° 0.1 mm 4 mps 762 mmHg 91%
    01:00 +17°C° 0.1 mm 4 mps 762 mmHg 91%
    02:00 +15°C° 0.4 mm 5 mps 762 mmHg 91%
    03:00 +15°C° 0.4 mm 5 mps 761 mmHg 92%
    04:00 +15°C° 0.4 mm 5 mps 761 mmHg 92%
    05:00 +16°C° 0.2 mm 5 mps 761 mmHg 89%
    06:00 +17°C° 0.2 mm 5 mps 761 mmHg 86%
    07:00 +19°C° 0.2 mm 5 mps 762 mmHg 84%
    08:00 +20°C° 0.6 mm 5 mps 761 mmHg 83%
    09:00 +20°C° 0.6 mm 5 mps 761 mmHg 83%
    10:00 +21°C° 0.6 mm 5 mps 761 mmHg 82%
    11:00 +21°C° 0.2 mm 5 mps 761 mmHg 82%
    12:00 +21°C° 0.2 mm 4 mps 761 mmHg 81%
    13:00 +21°C° 0.2 mm 3 mps 760 mmHg 81%
    14:00 +21°C° 0.1 mm 4 mps 760 mmHg 82%
    15:00 +20°C° 0.1 mm 4 mps 760 mmHg 83%
    16:00 +20°C° 0.1 mm 5 mps 760 mmHg 84%
    17:00 +20°C° 0.1 mm 6 mps 760 mmHg 87%
    18:00 +19°C° 0.1 mm 6 mps 760 mmHg 89%
    19:00 +17°C° 0.1 mm 7 mps 760 mmHg 92%
    20:00 +17°C° 0.1 mm 6 mps 761 mmHg 94%
    21:00 +16°C° 0.1 mm 5 mps 761 mmHg 95%
    22:00 +17°C° 0.1 mm 4 mps 761 mmHg 96%
    23:00 +17°C° 0 mm 4 mps 761 mmHg 95%
    Show more